Satellite-Ground Cal/Val Region Overpasses Predictions

Prediction of Satellite NPP Overpassing Cal/Val Region: PacNW

Region Location: (Latitude: 10.00, Longitude: 139.50) to (Latitude: 22.70, Longitude: 165.60).

Table of predicted overpasses for the next 14.0 days since TLE Epoch: 1/30/2021
Interval Starting Time Starting Location Ending Time Ending Location
1 01/30/2021 15:55:12 ( 22.69, 146.02) 01/30/2021 15:58:48 ( 10.01, 143.00)
2 01/31/2021 03:04:18 ( 10.06, 153.53) 01/31/2021 03:07:53 ( 22.68, 150.53)
3 01/31/2021 15:36:11 ( 22.66, 150.77) 01/31/2021 15:39:46 ( 10.04, 147.77)
4 02/01/2021 02:45:16 ( 10.02, 158.30) 02/01/2021 02:48:51 ( 22.65, 155.30)
5 02/01/2021 15:17:09 ( 22.64, 155.52) 02/01/2021 15:20:44 ( 10.02, 152.52)
6 02/02/2021 02:26:14 ( 10.05, 163.05) 02/02/2021 02:29:49 ( 22.67, 160.05)
7 02/02/2021 14:58:07 ( 22.68, 160.29) 02/02/2021 15:01:42 ( 10.06, 157.28)
8 02/03/2021 02:09:53 ( 19.47, 165.59) 02/03/2021 02:10:48 ( 22.69, 164.80)
9 02/03/2021 03:48:42 ( 10.02, 142.44) 02/03/2021 03:52:12 ( 22.35, 139.51)
10 02/03/2021 14:39:06 ( 22.65, 165.04) 02/03/2021 14:42:41 ( 10.03, 162.04)
11 02/03/2021 16:20:36 ( 22.65, 139.66) 02/03/2021 16:20:46 ( 22.06, 139.51)
12 02/04/2021 03:29:40 ( 10.04, 147.19) 02/04/2021 03:33:15 ( 22.67, 144.19)
13 02/04/2021 16:01:33 ( 22.68, 144.43) 02/04/2021 16:05:09 ( 10.00, 141.41)
14 02/05/2021 03:10:38 ( 10.01, 151.95) 02/05/2021 03:14:14 ( 22.69, 148.94)
15 02/05/2021 15:42:32 ( 22.66, 149.18) 02/05/2021 15:46:07 ( 10.04, 146.18)
16 02/06/2021 02:51:36 ( 10.03, 156.71) 02/06/2021 02:55:11 ( 22.66, 153.70)
17 02/06/2021 15:23:29 ( 22.69, 153.94) 02/06/2021 15:27:05 ( 10.01, 150.93)
18 02/07/2021 02:32:34 ( 10.00, 161.47) 02/07/2021 02:36:10 ( 22.68, 158.46)
19 02/07/2021 15:04:28 ( 22.67, 158.70) 02/07/2021 15:08:03 ( 10.05, 155.69)
20 02/08/2021 02:14:19 ( 12.79, 165.59) 02/08/2021 02:17:07 ( 22.65, 163.22)
21 02/08/2021 03:55:02 ( 10.03, 140.85) 02/08/2021 03:56:40 ( 15.79, 139.51)
22 02/08/2021 14:45:26 ( 22.64, 163.45) 02/08/2021 14:49:01 ( 10.02, 160.45)
23 02/09/2021 03:36:01 ( 10.06, 145.60) 02/09/2021 03:39:36 ( 22.68, 142.60)
24 02/09/2021 14:29:31 ( 11.70, 165.59) 02/09/2021 14:29:59 ( 10.06, 165.21)
25 02/09/2021 16:07:54 ( 22.67, 142.84) 02/09/2021 16:11:29 ( 10.05, 139.83)
26 02/10/2021 03:16:59 ( 10.03, 150.36) 02/10/2021 03:20:34 ( 22.65, 147.36)
27 02/10/2021 15:48:52 ( 22.64, 147.59) 02/10/2021 15:52:27 ( 10.02, 144.59)
28 02/11/2021 02:57:57 ( 10.05, 155.11) 02/11/2021 03:01:32 ( 22.68, 152.11)
29 02/11/2021 15:29:50 ( 22.68, 152.35) 02/11/2021 15:33:25 ( 10.06, 149.35)
30 02/12/2021 02:38:55 ( 10.02, 159.88) 02/12/2021 02:42:30 ( 22.65, 156.88)
31 02/12/2021 15:10:48 ( 22.65, 157.10) 02/12/2021 15:14:23 ( 10.03, 154.10)
